THOR AGENA B R/B, 1807

Orbit data source: Space-Track

THOR AGENA B R/B, 1807 is space debris in LEO originally from a launch on Mon, 29 Nov 1965 UTC launched from the Air Force Western Test Range (AFWTR). Debris objects in space refer to the collection of defunct objects orbiting the Earth. Examples of debris include non-operational satellites, rocket bodies, and fragments generated from explosions, collisions, or faulty payload assembly.

Loading next visibility...
Identifier
1807, 1965-098C
Orbit
LEO
Country
Flag of USUS
Related business
Manufacturer
LMSC
Mission
Spacecraft
Bus & Motor
AGENA B, Unknown motor
Mass
600 kg wet, 600 kg dry
Launch date (UTC)
1965-11-29 (60 years ago)
Launch vehicle
Unknown
Launch site
Air Force Western Test Range (AFWTR)
Object type
Payload
Rocket body
Debris
Shape & HBR
Unknown
Radar Cross Section
Large (>1 m²)

Expand to show TLE details & history
Last TLE update: 8 hours ago

TLE from 8 hours ago
0 THOR AGENA B R/B
1 01807U 65098C   25339.95814429  .00001616  00000-0  52850-3 0  9995
2 01807  79.8351 205.2145 1331690  62.7536 310.2844 12.27800886649588
Epoch: 2025-12-05T22:59Z
TLE epoch observation values (Epoch: 2025-12-05T22:59:43.666Z)
Latitude
-0.00007°
Longitude
145.28977°
Altitude
970.888 km
Speed
7.635 km/s
True Right ascension
13h 40m 51s
True Declination
0° 00' 00"
Sunlit
Object was in daylight at epoch
Visualization orbit readout
Latitude
Unknown
Longitude
Unknown
Altitude
Unknown
Speed
Unknown
Apparent Right ascension
Unknown
Apparent Declination
Unknown
Sunlit
N/A
Visualization observer readout
Local Sidereal Time
05:12:06
Azimuth
Unknown
Elevation
Unknown
Doppler factor
Unknown
Orbital elements
Apogee altitude
2,612.769 km
Perigee altitude
499.563 km
Semi-major axis
7,934.303 km
Eccentricity
0.13317
Inclination
79.8351°
RAAN
205.2145°
Arg. of periapsis
62.7536°
True anomaly
297.35891°
Mean anomaly
310.2844°
Eccentric anomaly
303.95551°
Mean motion
3.071 °/min
Orbital period
117.23 mins
BSTAR
0.0005285
Loading maneuver chart data...
Computing Atmospheric mass density...
Loading historical data...
Loading historical data...
Loading historical data...
Loading historical data...
Loading historical data...
Loading historical data...
Loading historical data...

Documentation

Showing up to 5 results
|